User: anonymous   Login
Location: Unspecified
(0.0000°N, 0.0000°E)
Time: 16:54:44
(UTC+00:00)
Language:

NEE 01 PEGASUS - Orbit

View from above orbital plane
View from above orbital plane
View from above satellite
View from above satellite

Ground track
Ground track

The orbit data is extracted from the following two-line orbital elements,

1 39151U 13018B   24105.55877632  .00004533  00000-0  53593-3 0  9990
2 39151  98.0271 222.1071 0014276 244.4976 115.4762 14.85081979592520
Epoch (UTC): 14 April 2024 13:24:38
Eccentricity: 0.0014276
inclination: 98.0271°
perigee height: 603 km
apogee height: 623 km
right ascension of ascending node: 222.1071°
argument of perigee: 244.4976°
revolutions per day: 14.85081979
mean anomaly at epoch: 115.4762°
orbit number at epoch: 59252

The dashed part of the orbit path shows where the satellite is in the earth's shadow,  

DLR